Theta_e
350 353 352 351 349 350 355 355 349 347 348 350 351 354 355 355 354 356 355 353 355 357 356 354 352 347 338 337 339 339 339 337 336 336 337 339 339 339 338 338 338 337 335
351 351 353 353 353 350 349 354 356 353 347 347 354 358 353 354 356 354 355 354 354 357 357 356 355 354 351 338 336 338 339 339 338 336 337 337 338 339 339 338 338 337 336
352 352 353 355 355 355 353 350 350 353 352 347 346 349 359 358 356 354 354 355 356 354 355 356 356 356 354 352 347 338 337 341 340 339 339 337 337 339 339 339 338 337 336
354 355 354 354 357 358 357 355 352 349 354 354 349 345 350 358 358 354 353 355 355 353 354 353 353 356 355 355 353 349 346 341 342 341 339 339 339 340 338 337 337 337 337
355 355 356 356 355 357 360 359 357 354 352 351 353 352 349 351 355 358 354 354 354 353 353 355 356 356 356 357 355 354 351 349 345 342 341 341 341 341 340 338 337 337 337
354 355 355 356 358 357 358 360 360 359 357 355 354 354 355 354 354 355 357 357 355 355 354 352 352 352 353 354 356 357 356 353 347 342 340 339 340 341 342 340 339 338 338
353 354 355 357 358 360 360 360 360 361 360 357 357 356 355 356 357 358 358 358 357 357 357 356 356 356 354 354 354 357 358 358 356 351 341 340 340 339 339 340 341 340 340
350 355 356 358 359 360 361 361 361 361 362 361 358 358 359 358 357 358 360 360 359 358 358 357 357 357 358 358 358 358 358 358 357 354 351 348 344 343 340 339 339 340 339
349 349 357 359 361 361 362 362 362 362 362 362 362 361 359 360 360 360 360 361 360 359 359 358 358 359 359 359 359 358 358 356 357 357 358 357 355 349 346 340 340 339 339
350 351 352 356 360 361 362 362 363 363 363 363 363 363 363 363 362 362 363 363 360 359 360 360 360 360 359 360 361 360 358 358 357 356 356 353 352 351 344 341 342 340 338
354 353 355 355 356 360 362 362 362 363 363 363 363 363 363 364 364 364 364 364 362 362 361 360 360 359 359 359 359 359 360 360 359 358 355 352 349 348 348 343 341 340 338
360 358 358 359 358 360 361 362 363 363 364 364 364 364 364 364 364 365 365 364 364 363 363 362 361 361 360 359 358 358 358 359 359 358 357 352 348 346 345 344 341 340 337
347 352 360 360 361 362 362 362 363 364 364 365 365 365 365 365 366 366 366 366 366 366 364 364 363 363 363 361 360 359 355 354 354 349 353 355 352 349 345 342 338 336 337
353 351 356 361 362 362 364 364 364 365 365 365 366 366 366 366 366 366 366 367 367 367 367 365 364 364 363 361 360 358 356 353 349 345 347 350 351 349 343 340 337 337 337
363 360 356 361 364 363 362 365 365 366 366 366 366 366 366 366 366 367 367 366 366 366 367 363 359 359 359 357 356 354 351 348 347 344 345 345 343 342 338 336 335 336 333
355 358 361 362 362 363 362 356 361 364 366 367 367 367 367 367 367 366 365 365 364 365 360 357 355 354 352 352 350 347 345 343 342 341 341 341 340 338 335 333 334 332 331
351 351 354 358 362 363 355 348 343 349 358 363 366 367 367 367 365 364 363 363 361 361 357 355 353 351 348 346 344 340 339 339 338 339 338 339 338 337 335 334 332 333 328
349 351 352 355 361 363 356 351 349 348 347 351 357 361 363 364 360 356 356 356 353 353 354 351 348 347 345 341 338 337 337 338 338 338 338 338 337 336 334 332 332 329 325
349 352 353 358 362 362 358 351 349 349 347 344 342 346 350 353 354 354 354 353 352 350 349 347 345 341 337 336 336 335 334 334 335 335 337 337 336 334 333 332 331 329 326
348 352 354 354 361 360 356 349 347 343 341 337 336 338 338 338 339 339 339 339 339 338 337 337 336 336 336 336 335 336 335 334 333 335 336 337 335 334 333 332 331 327 326
348 352 351 352 357 359 355 350 344 339 336 334 334 335 336 336 336 336 336 337 337 336 336 336 336 335 335 336 335 334 333 332 333 333 334 334 334 334 333 333 331 330 324
349 351 348 347 350 350 347 344 342 340 337 335 334 335 337 336 336 336 335 335 335 336 337 337 336 334 334 334 332 332 332 332 333 334 334 333 333 332 331 330 329 326 323
349 349 345 343 343 343 339 338 337 335 334 335 334 334 336 335 334 335 335 335 335 335 336 336 336 336 335 335 334 333 332 332 332 332 333 333 333 330 328 329 327 324 323
346 343 337 335 335 334 331 329 330 331 330 331 332 333 334 333 332 333 333 335 337 336 336 336 336 336 335 334 334 334 335 334 334 333 333 332 333 330 328 327 326 325 324
335 334 333 330 328 326 324 323 323 322 322 323 323 324 324 327 329 329 332 334 334 335 335 336 336 335 333 333 333 333 333 333 333 333 332 332 331 329 328 328 326 325 323
326 325 324 322 320 319 318 316 315 315 315 315 315 315 315 315 316 318 320 325 326 327 328 331 333 333 332 329 325 326 329 331 331 331 332 331 330 329 328 326 325 323 322
Wind_Speed
40 39 38 38 42 43 41 39 40 36 31 27 31 28 31 35 35 33 32 29 28 27 26 25 25 23 24 26 22 20 22 20 16 20 16 16 20 33 32 32 30 29 28
43 40 38 37 36 37 40 43 38 39 38 37 28 24 31 32 36 37 35 33 32 32 32 31 31 28 27 28 29 29 25 25 23 22 22 19 21 27 33 32 30 31 31
39 38 37 35 35 37 41 41 43 42 40 39 38 33 25 28 31 38 38 35 36 37 37 36 36 33 33 32 31 32 32 27 26 26 29 22 22 26 30 33 32 31 30
38 38 39 40 38 37 41 42 42 44 42 40 40 42 37 31 32 36 39 39 38 38 39 38 39 39 38 37 36 36 36 35 32 30 30 30 25 27 30 34 31 31 31
39 39 40 39 39 39 37 40 41 41 42 44 42 40 41 41 39 39 41 42 41 40 40 41 42 42 42 42 40 40 38 37 31 31 27 29 30 25 27 32 32 32 36
40 41 39 36 37 38 38 36 38 39 40 38 38 40 41 42 41 44 45 45 45 43 42 43 45 44 44 46 46 45 42 39 32 26 27 26 32 32 33 32 32 24 13
37 37 35 36 35 36 37 36 35 36 38 37 37 39 40 42 41 42 44 45 41 41 41 41 41 41 44 46 47 48 48 49 47 37 34 35 35 36 35 32 31 28 26
34 34 35 35 35 35 34 34 35 34 34 35 38 39 39 41 43 43 42 44 42 41 42 41 39 38 37 39 41 42 46 49 52 51 48 47 42 43 39 42 43 38 21
32 34 36 37 36 35 34 35 36 33 32 33 34 36 38 37 38 41 40 43 44 42 40 40 38 36 36 36 38 38 38 37 42 47 51 56 56 52 48 38 32 26 12
34 36 38 36 38 37 38 37 37 36 34 32 32 35 38 37 38 38 37 41 38 36 37 38 38 40 38 33 37 38 36 34 35 41 46 50 50 53 49 45 39 30 25
20 25 31 36 38 38 36 34 33 32 31 30 32 33 34 35 37 36 37 40 38 31 32 32 32 33 34 34 38 40 42 41 38 39 37 38 37 41 49 50 43 39 28
15 22 27 31 33 31 33 31 31 30 29 29 28 29 31 31 34 36 38 40 41 37 34 31 31 30 31 32 31 35 38 42 39 32 27 27 28 33 41 44 43 45 38
4 7 17 25 32 33 33 29 27 28 28 26 26 26 26 25 29 31 33 35 39 46 38 36 34 32 30 27 25 25 21 23 29 27 25 27 31 35 33 34 32 30 32
7 7 7 14 24 29 29 29 28 26 26 25 24 24 22 22 25 24 27 30 34 38 42 43 38 33 29 27 27 27 24 22 20 22 21 23 26 23 19 12 16 27 26
17 15 12 11 17 23 26 26 26 27 29 27 26 23 21 21 24 27 28 29 30 31 35 35 31 30 27 24 24 23 20 17 17 18 16 15 12 6 18 19 17 21 16
19 21 21 20 18 22 27 23 24 27 27 30 25 26 26 27 26 24 25 26 26 27 21 23 20 20 19 17 14 13 13 12 11 10 4 4 8 24 19 14 18 23 23
21 21 22 21 18 24 26 23 16 10 16 22 27 28 27 28 26 21 20 22 25 24 18 20 17 14 12 10 8 7 5 4 3 4 4 7 19 14 11 18 21 22 21
25 25 23 23 19 24 27 27 24 22 16 13 18 22 22 24 17 12 13 12 17 16 15 14 13 11 10 8 6 6 5 4 4 3 6 10 12 13 20 19 21 18 20
28 25 24 23 23 24 26 23 24 23 18 15 12 12 14 16 16 16 16 12 15 14 12 11 11 11 9 8 7 6 5 5 5 6 9 12 12 15 16 18 21 22 25
28 26 22 23 24 23 22 22 20 21 21 18 16 20 17 15 13 11 10 10 12 13 13 12 11 9 8 8 8 6 6 6 7 9 11 13 15 17 19 22 23 23 23
26 24 15 13 18 21 23 23 21 20 19 16 18 18 14 12 12 11 12 12 14 15 14 12 10 8 7 8 8 6 6 6 7 11 12 13 14 16 17 19 19 22 23
25 20 6 7 15 16 18 18 22 22 22 23 21 18 13 12 13 13 13 14 15 13 10 11 9 8 7 7 6 9 11 11 11 12 15 15 14 15 17 20 23 23 22
23 14 9 9 18 29 23 22 23 20 20 21 20 17 17 13 13 15 13 11 12 11 10 10 8 7 5 4 6 8 12 13 14 17 19 15 16 20 20 23 25 25 23
18 21 24 21 16 20 32 25 25 27 21 19 16 10 9 9 8 9 10 9 11 10 9 8 5 4 5 6 5 6 7 7 6 10 14 16 21 21 20 23 24 25 25
21 23 19 31 25 22 25 25 26 21 23 24 21 19 17 15 12 10 7 7 7 8 7 5 5 5 7 7 7 8 9 8 8 9 8 15 20 19 21 23 26 27 27
24 23 22 24 25 31 24 23 23 24 25 27 25 23 21 20 17 15 14 12 12 11 10 9 9 10 10 7 6 5 6 9 10 12 13 13 18 20 22 23 24 25 26
Wind_Direction
201 204 207 211 215 219 221 226 227 227 224 226 230 232 236 234 230 227 227 230 228 231 234 237 239 240 239 237 240 245 241 231 226 253 247 241 239 228 232 233 237 239 239
200 202 206 210 212 215 218 224 226 229 230 230 230 234 236 237 232 228 229 231 229 229 232 236 240 241 243 242 243 244 245 242 240 246 251 247 240 232 232 234 233 236 238
198 200 202 207 209 213 220 222 227 229 231 232 234 234 231 227 228 229 230 232 232 234 236 238 242 242 245 245 245 247 249 251 252 254 260 260 250 236 227 229 232 237 240
194 197 201 205 207 209 220 225 225 228 229 231 233 235 233 230 228 227 230 234 238 240 240 242 245 245 247 249 249 250 251 251 251 253 255 256 252 240 231 229 229 232 237
194 198 204 207 207 210 213 220 227 227 228 231 231 234 236 234 232 231 231 234 237 241 243 243 245 248 252 252 249 251 251 253 251 248 248 249 243 232 223 229 231 234 236
195 201 205 204 206 209 211 213 220 223 227 226 227 227 231 233 232 233 232 232 236 237 239 245 249 251 253 254 254 255 253 249 243 238 239 237 241 236 237 224 225 225 241
198 203 203 204 205 208 211 211 214 217 222 221 225 227 228 232 232 234 235 234 234 237 240 243 245 247 251 254 256 255 254 254 253 248 241 240 245 241 236 231 223 224 228
196 200 202 202 205 208 208 211 215 217 216 218 222 227 230 233 237 236 237 238 236 240 243 244 244 246 246 248 251 252 256 255 251 250 248 255 251 255 245 237 238 235 217
200 201 201 200 204 205 207 210 215 216 217 220 222 225 228 233 237 238 237 237 239 241 244 247 247 248 247 248 250 252 253 254 257 259 260 261 259 257 256 243 226 205 195
205 205 205 202 204 206 209 210 215 215 218 219 223 225 231 232 236 238 234 235 240 243 248 250 252 253 252 249 246 248 253 254 255 258 256 257 259 259 253 245 237 216 215
225 217 211 206 209 212 213 212 213 215 218 220 223 226 230 233 234 235 235 234 237 244 247 251 253 255 256 256 254 252 254 263 260 259 258 257 255 255 255 247 237 227 221
221 225 223 215 214 214 213 213 213 213 215 219 222 229 232 233 236 238 237 236 238 238 245 250 254 255 257 258 256 259 264 264 264 267 268 258 253 247 248 245 233 228 211
275 225 221 222 224 218 211 207 206 209 214 218 220 228 234 233 235 235 239 241 243 241 245 249 252 255 259 258 258 263 264 269 273 270 267 267 262 264 258 245 232 216 167
286 279 267 238 231 222 216 209 205 207 213 220 222 227 230 232 231 232 235 239 241 243 248 250 251 254 257 255 260 267 277 287 284 281 276 280 280 278 270 236 164 165 173
356 328 307 281 250 233 217 208 209 216 215 215 222 223 223 231 233 237 240 239 241 244 246 248 251 253 254 255 262 275 286 295 301 302 292 288 286 261 145 148 157 178 167
340 329 322 302 282 232 220 216 218 222 225 226 224 225 232 241 246 246 248 249 253 251 234 235 236 242 246 254 267 282 290 298 294 284 267 235 207 157 163 175 182 169 147
317 308 304 300 268 226 215 207 197 216 227 231 233 234 233 247 247 248 249 248 243 236 223 227 225 226 231 235 245 252 281 293 293 265 242 170 161 169 171 162 162 160 153
303 297 295 284 272 227 213 208 205 197 191 200 224 232 232 236 226 205 210 198 167 193 208 199 196 199 215 224 212 185 179 194 236 252 226 204 200 186 162 156 152 149 154
299 289 294 280 264 247 219 204 200 201 192 181 165 156 163 171 177 184 183 191 182 186 188 190 197 199 194 180 176 189 202 217 222 213 221 211 192 178 173 172 165 170 169
290 285 290 284 255 232 201 186 177 181 180 173 170 162 157 151 159 169 175 172 167 170 174 178 171 174 183 191 200 214 212 218 213 205 207 206 199 196 188 184 182 172 178
278 280 290 264 248 212 187 178 169 163 159 156 168 167 160 166 158 162 162 162 169 169 163 164 170 184 198 197 197 190 199 207 210 204 204 203 194 191 195 194 192 182 182
263 261 240 181 146 138 143 147 147 150 152 155 157 159 167 163 157 158 164 170 169 163 166 181 186 186 181 184 188 195 199 204 202 203 205 211 212 205 198 193 185 186 187
246 220 144 123 127 119 103 107 115 123 136 143 145 141 153 159 167 171 165 169 177 184 185 188 190 189 199 225 238 233 228 228 225 219 213 214 205 193 191 190 191 195 195
210 166 123 102 97 104 112 101 105 115 109 111 117 122 147 162 163 176 171 161 167 169 170 173 183 203 224 179 186 208 218 219 224 201 203 208 194 199 206 203 208 209 208
137 130 119 118 104 93 88 96 98 88 94 97 94 96 102 106 110 113 128 153 157 163 160 169 183 174 168 187 197 196 194 201 196 197 207 203 203 212 212 213 210 213 214
97 99 105 102 106 99 94 91 88 87 84 88 93 95 92 89 88 90 94 104 104 109 122 140 163 168 173 163 152 168 199 210 216 219 225 224 212 222 220 220 217 216 216